Weather History for KAEG - January, 2013

Change the Weather History Date:

Tuesday, January 8, 2013

  Actual Average Record
Temperature  
Mean Temperature 30 °F -  
Max Temperature 46 °F - - ()
Min Temperature 15 °F - - ()
Degree Days  
Heating Degree Days 34    
Moisture  
Dew Point 11 °F    
Average Humidity 49    
Maximum Humidity 73    
Minimum Humidity 20    
Precipitation  
Precipitation 0.00 in - - ()
Sea Level Pressure  
Sea Level Pressure 30.06 in    
Wind  
Wind Speed 12 mph (NNW)    
Max Wind Speed 23 mph    
Max Gust Speed 30 mph    
Visibility 10 miles    
Events      
T = Trace of Precipitation, MM = Missing Value Source: NWS Daily Summary

Daily Weather History Graph

Daily Weather History Graph

Search for Another Location

Airport or City:

Trip Planner

Search our weather history database for the weather conditions in past years. The results will help you decide how hot, cold, wet, or windy it might be!

Date:

Astronomy

Jan. 08, 2013 Rise Set
Actual Time 7:16 AM MST 5:12 PM MST
Civil Twilight 6:48 AM MST 5:40 PM MST
Nautical Twilight 6:16 AM MST 6:11 PM MST
Astronomical Twilight 5:46 AM MST 6:42 PM MST
Moon 3:52 AM MST (1/8) 2:16 PM MST (1/8)
Length of Visible Light 10h 51m
Length of Day
9h 56m
Waning Crescent, 13% of the Moon is Illuminated
Jan 8
Waning Crescent
Jan 11
New
Jan 18
First Quarter
Jan 26
Full
Feb 3
Last Quarter

Hourly Weather History & Observations

Time (MST) Temp. Windchill Dew Point Humidity Pressure Visibility Wind Dir Wind Speed Gust Speed Precip Events Conditions
12:15 AM 23.0 °F 13.1 °F 10.4 °F 59% 29.96 in 10.0 mi North 9.2 mph - N/A   Clear
12:35 AM 24.8 °F 13.4 °F 14.0 °F 64% 29.96 in 10.0 mi NNW 12.7 mph - N/A   Clear
12:55 AM 26.6 °F 14.7 °F 14.0 °F 59% 29.96 in 10.0 mi NNW 15.0 mph - N/A   Clear
1:15 AM 28.4 °F 16.6 °F 15.8 °F 59% 29.97 in 10.0 mi NNW 16.1 mph - N/A   Clear
1:35 AM 28.4 °F 17.5 °F 15.8 °F 59% 29.97 in 10.0 mi NNW 13.8 mph - N/A   Clear
1:55 AM 28.4 °F 17.0 °F 14.0 °F 55% 29.98 in 10.0 mi NNW 15.0 mph - N/A   Clear
2:15 AM 28.4 °F 18.5 °F 14.0 °F 55% 29.98 in 10.0 mi NNW 11.5 mph - N/A   Clear
2:35 AM 24.8 °F 14.0 °F 14.0 °F 64% 29.97 in 10.0 mi NNE 11.5 mph - N/A   Clear
2:55 AM 23.0 °F 12.4 °F 12.2 °F 63% 29.97 in 10.0 mi NNE 10.4 mph - N/A   Clear
3:15 AM 21.2 °F 11.7 °F 12.2 °F 68% 29.97 in 10.0 mi NNE 8.1 mph - N/A   Clear
3:35 AM 23.0 °F 13.1 °F 14.0 °F 68% 29.96 in 10.0 mi North 9.2 mph - N/A   Clear
3:55 AM 17.6 °F 7.3 °F 10.4 °F 73% 29.97 in 10.0 mi NNW 8.1 mph - N/A   Clear
4:15 AM 19.4 °F 9.5 °F 10.4 °F 68% 29.96 in 10.0 mi North 8.1 mph - N/A   Clear
4:35 AM 15.8 °F - 8.6 °F 73% 29.97 in 10.0 mi Calm Calm - N/A   Clear
6:50 AM 15.8 °F - 8.6 °F 73% 29.99 in 10.0 mi Calm Calm - N/A   Clear
7:50 AM 15.8 °F - 8.6 °F 73% 30.01 in 10.0 mi Calm Calm - N/A   Clear
8:50 AM 24.8 °F - 14.0 °F 64% 30.04 in 10.0 mi Calm Calm - N/A   Clear
9:50 AM 35.6 °F 27.1 °F 10.4 °F 35% 30.05 in 10.0 mi North 12.7 mph - N/A   Clear
10:50 AM 37.4 °F 31.4 °F 10.4 °F 33% 30.04 in 10.0 mi NNE 8.1 mph 18.4 mph N/A   Clear
11:50 AM 41.0 °F 31.6 °F 5.0 °F 23% 30.03 in 10.0 mi NNW 20.7 mph - N/A   Clear
12:50 PM 44.6 °F 37.4 °F 5.0 °F 20% 30.00 in 10.0 mi NNW 16.1 mph - N/A   Scattered Clouds
1:50 PM 46.4 °F 39.8 °F 8.6 °F 22% 30.01 in 10.0 mi NNW 16.1 mph - N/A   Scattered Clouds
2:50 PM 44.6 °F 36.6 °F 8.6 °F 23% 30.03 in 10.0 mi North 19.6 mph 24.2 mph N/A   Scattered Clouds
3:50 PM 41.0 °F 31.1 °F 6.8 °F 24% 30.04 in 10.0 mi NNW 23.0 mph 29.9 mph N/A   Scattered Clouds
4:50 PM 39.2 °F 28.7 °F 8.6 °F 28% 30.07 in 10.0 mi NNW 23.0 mph - N/A   Partly Cloudy
5:50 PM 33.8 °F 22.8 °F 10.4 °F 38% 30.09 in 10.0 mi NNW 18.4 mph - N/A   Clear
6:50 PM 32.0 °F 20.5 °F 10.4 °F 41% 30.12 in 10.0 mi NNW 18.4 mph - N/A   Clear
7:50 PM 32.0 °F 19.8 °F 10.4 °F 41% 30.14 in 10.0 mi NNW 20.7 mph - N/A   Clear
8:50 PM 32.0 °F 20.1 °F 10.4 °F 41% 30.17 in 10.0 mi NNW 19.6 mph - N/A   Clear
9:15 PM 32.0 °F 20.8 °F 10.4 °F 41% 30.18 in 10.0 mi North 17.3 mph - N/A   Clear
9:35 PM 30.2 °F 19.3 °F 10.4 °F 44% 30.19 in 10.0 mi North 15.0 mph - N/A   Clear
9:50 PM 30.2 °F 18.9 °F 10.4 °F 44% 30.19 in 10.0 mi NNW 16.1 mph - N/A   Clear
9:55 PM 30.2 °F 19.3 °F 10.4 °F 44% 30.20 in 10.0 mi NNW 15.0 mph - N/A   Clear
10:55 PM 30.2 °F 18.1 °F 10.4 °F 44% 30.23 in 10.0 mi North 18.4 mph - N/A   Clear
11:15 PM 30.2 °F 18.5 °F 10.4 °F 44% 30.24 in 10.0 mi North 17.3 mph - N/A   Clear
11:35 PM 30.2 °F 18.1 °F 10.4 °F 44% 30.24 in 10.0 mi North 18.4 mph - N/A   Clear
11:55 PM 30.2 °F 18.5 °F 10.4 °F 44% 30.25 in 10.0 mi NNW 17.3 mph - N/A   Clear